Time,TemperatureF,DewpointF,PressureIn,WindDirection,WindDirectionDegrees,WindSpeedMPH,WindSpeedGustMPH,Humidity,HourlyPrecipIn,Conditions,Clouds,dailyrainin,SoftwareType,DateUTC
2013-01-12 00:02:00,67.0,64.0,29.75,SSE,157,4.0,9.0,90,0.00,,,0.00,,2013-01-12 06:02:00,
2013-01-12 00:12:00,67.0,64.0,29.75,SSE,157,4.0,9.0,90,0.00,,,0.00,,2013-01-12 06:12:00,
2013-01-12 00:22:00,67.0,64.0,29.77,SSE,157,1.0,8.0,91,0.00,,,0.00,,2013-01-12 06:22:00,
2013-01-12 00:32:00,67.0,64.0,29.77,SSE,157,1.0,5.0,91,0.00,,,0.00,,2013-01-12 06:32:00,
2013-01-12 00:42:00,67.0,64.0,29.77,SSE,157,1.0,5.0,91,0.00,,,0.00,,2013-01-12 06:42:00,
2013-01-12 00:52:00,67.0,65.0,29.77,SSE,157,0.0,0.0,92,0.00,,,0.00,,2013-01-12 06:52:00,
2013-01-12 01:02:00,66.0,64.0,29.76,SSE,158,3.0,7.0,92,0.00,,,0.00,,2013-01-12 07:02:00,
2013-01-12 01:12:00,66.0,64.0,29.75,SSE,158,3.0,7.0,93,0.00,,,0.00,,2013-01-12 07:12:00,
2013-01-12 01:22:00,66.0,64.0,29.75,SSE,158,3.0,7.0,93,0.00,,,0.00,,2013-01-12 07:22:00,
2013-01-12 01:32:00,66.0,64.0,29.75,SSE,158,2.0,6.0,93,0.00,,,0.00,,2013-01-12 07:32:00,
2013-01-12 01:42:00,66.0,64.0,29.75,SSE,158,2.0,6.0,93,0.00,,,0.00,,2013-01-12 07:42:00,
2013-01-12 01:52:00,66.0,64.0,29.75,SSE,158,0.0,3.0,93,0.00,,,0.00,,2013-01-12 07:52:00,
2013-01-12 02:02:00,66.0,64.0,29.75,SSE,158,3.0,5.0,93,0.00,,,0.00,,2013-01-12 08:02:00,
2013-01-12 02:11:00,66.0,64.0,29.75,SSE,158,3.0,5.0,93,0.00,,,0.00,,2013-01-12 08:11:00,
2013-01-12 02:22:00,66.0,64.0,29.76,SSE,157,0.0,4.0,93,0.00,,,0.00,,2013-01-12 08:22:00,
2013-01-12 02:32:00,66.0,64.0,29.75,SSE,157,0.0,0.0,93,0.00,,,0.00,,2013-01-12 08:32:00,
2013-01-12 02:42:00,66.0,64.0,29.75,SSE,157,0.0,0.0,93,0.00,,,0.00,,2013-01-12 08:42:00,
2013-01-12 02:52:00,66.0,64.0,29.75,SSE,157,2.0,6.0,93,0.00,,,0.00,,2013-01-12 08:52:00,
2013-01-12 03:02:00,66.0,64.0,29.74,SSE,157,4.0,8.0,94,0.00,,,0.00,,2013-01-12 09:02:00,
2013-01-12 03:12:00,66.0,64.0,29.74,SSE,157,4.0,8.0,94,0.00,,,0.00,,2013-01-12 09:12:00,
2013-01-12 03:22:00,66.0,64.0,29.73,SSE,167,4.0,13.0,94,0.00,,,0.00,,2013-01-12 09:22:00,
2013-01-12 03:32:00,66.0,64.0,29.72,SSE,167,4.0,10.0,93,0.00,,,0.00,,2013-01-12 09:32:00,
2013-01-12 03:42:00,66.0,64.0,29.72,SSE,167,4.0,10.0,93,0.00,,,0.00,,2013-01-12 09:42:00,
2013-01-12 03:52:00,67.0,65.0,29.71,SSE,167,5.0,9.0,93,0.00,,,0.00,,2013-01-12 09:52:00,
2013-01-12 04:02:00,67.0,65.0,29.70,SSE,167,3.0,9.0,93,0.00,,,0.00,,2013-01-12 10:02:00,
2013-01-12 04:12:00,67.0,65.0,29.70,SSE,167,3.0,9.0,93,0.00,,,0.00,,2013-01-12 10:12:00,
2013-01-12 04:22:00,67.0,65.0,29.69,SSE,152,4.0,11.0,93,0.00,,,0.00,,2013-01-12 10:22:00,
2013-01-12 04:32:00,67.0,65.0,29.68,SSE,150,5.0,10.0,93,0.00,,,0.00,,2013-01-12 10:32:00,
2013-01-12 04:42:00,67.0,65.0,29.68,SSE,150,5.0,10.0,93,0.00,,,0.00,,2013-01-12 10:42:00,
2013-01-12 04:52:00,67.0,65.0,29.68,SSE,162,4.0,11.0,93,0.00,,,0.00,,2013-01-12 10:52:00,
2013-01-12 05:02:00,67.0,65.0,29.69,SSE,165,2.0,9.0,93,0.00,,,0.00,,2013-01-12 11:02:00,
2013-01-12 05:12:00,67.0,65.0,29.69,SSE,165,0.0,0.0,93,0.00,,,0.00,,2013-01-12 11:12:00,
2013-01-12 05:22:00,67.0,65.0,29.69,SSE,165,0.0,0.0,93,0.00,,,0.00,,2013-01-12 11:22:00,
2013-01-12 05:32:00,67.0,65.0,29.68,SSE,165,4.0,9.0,94,0.00,,,0.00,,2013-01-12 11:32:00,
2013-01-12 05:42:00,67.0,65.0,29.68,SSE,165,4.0,9.0,94,0.00,,,0.00,,2013-01-12 11:42:00,
2013-01-12 05:52:00,67.0,65.0,29.67,SSE,165,3.0,8.0,94,0.00,,,0.00,,2013-01-12 11:52:00,
2013-01-12 06:02:00,67.0,65.0,29.67,South,180,4.0,13.0,94,0.00,,,0.00,,2013-01-12 12:02:00,
2013-01-12 06:12:00,67.0,65.0,29.67,South,180,4.0,13.0,94,0.00,,,0.00,,2013-01-12 12:12:00,
2013-01-12 06:22:00,67.0,65.0,29.67,South,178,2.0,10.0,94,0.00,,,0.00,,2013-01-12 12:22:00,
2013-01-12 06:32:00,67.0,65.0,29.66,SSE,159,5.0,12.0,93,0.00,,,0.00,,2013-01-12 12:32:00,
2013-01-12 06:42:00,67.0,65.0,29.66,SSE,159,5.0,12.0,93,0.00,,,0.00,,2013-01-12 12:42:00,
2013-01-12 06:52:00,68.0,66.0,29.65,SSE,160,5.0,15.0,93,0.01,,,0.01,,2013-01-12 12:52:00,
2013-01-12 07:02:00,68.0,66.0,29.67,SSE,161,2.0,9.0,93,0.01,,,0.01,,2013-01-12 13:02:00,
2013-01-12 07:12:00,68.0,66.0,29.67,SSE,161,2.0,9.0,93,0.01,,,0.01,,2013-01-12 13:12:00,
2013-01-12 07:22:00,68.0,66.0,29.68,SSE,161,3.0,7.0,93,0.01,,,0.01,,2013-01-12 13:22:00,
2013-01-12 07:33:00,68.0,66.0,29.68,SSW,194,2.0,15.0,92,0.01,,,0.01,,2013-01-12 13:33:00,
2013-01-12 07:42:00,68.0,66.0,29.68,SSW,194,2.0,15.0,92,0.01,,,0.01,,2013-01-12 13:42:00,
2013-01-12 07:52:00,68.0,66.0,29.69,SSW,194,1.0,7.0,92,0.00,,,0.01,,2013-01-12 13:52:00,
2013-01-12 08:02:00,68.0,66.0,29.68,SSW,194,0.0,6.0,92,0.00,,,0.01,,2013-01-12 14:02:00,
2013-01-12 08:12:00,68.0,66.0,29.68,SSW,194,0.0,6.0,92,0.00,,,0.01,,2013-01-12 14:12:00,
2013-01-12 08:22:00,68.0,66.0,29.68,SSW,194,3.0,7.0,92,0.00,,,0.01,,2013-01-12 14:22:00,
2013-01-12 08:33:00,68.0,65.0,29.69,SSW,194,0.0,6.0,91,0.00,,,0.01,,2013-01-12 14:33:00,
2013-01-12 08:43:00,68.0,65.0,29.69,SSW,194,0.0,6.0,91,0.00,,,0.01,,2013-01-12 14:43:00,
2013-01-12 08:53:00,68.0,65.0,29.69,SSW,194,1.0,7.0,91,0.00,,,0.01,,2013-01-12 14:53:00,
2013-01-12 09:03:00,69.0,66.0,29.70,SSW,194,0.0,6.0,91,0.00,,,0.01,,2013-01-12 15:03:00,
2013-01-12 09:12:00,69.0,66.0,29.69,SSW,194,3.0,7.0,91,0.00,,,0.01,,2013-01-12 15:12:00,
2013-01-12 09:22:00,69.0,66.0,29.69,SSW,194,3.0,7.0,91,0.00,,,0.01,,2013-01-12 15:22:00,
2013-01-12 09:33:00,69.0,66.0,29.69,SSW,194,4.0,8.0,91,0.00,,,0.01,,2013-01-12 15:33:00,
2013-01-12 09:42:00,69.0,66.0,29.69,SSW,194,4.0,8.0,91,0.00,,,0.01,,2013-01-12 15:42:00,
2013-01-12 09:52:00,69.0,66.0,29.68,SSW,194,1.0,7.0,91,0.00,,,0.01,,2013-01-12 15:52:00,
2013-01-12 10:03:00,69.0,66.0,29.69,SSW,194,0.0,0.0,91,0.00,,,0.01,,2013-01-12 16:03:00,
2013-01-12 10:12:00,69.0,66.0,29.69,SSW,194,0.0,0.0,91,0.00,,,0.01,,2013-01-12 16:12:00,
2013-01-12 10:23:00,69.0,66.0,29.69,SSW,194,0.0,6.0,91,0.00,,,0.01,,2013-01-12 16:23:00,
2013-01-12 10:33:00,69.0,66.0,29.69,SSW,194,2.0,7.0,91,0.00,,,0.01,,2013-01-12 16:33:00,
2013-01-12 10:42:00,69.0,66.0,29.69,SSW,194,2.0,7.0,91,0.00,,,0.01,,2013-01-12 16:42:00,
2013-01-12 10:52:00,69.0,66.0,29.69,SSW,194,2.0,7.0,91,0.00,,,0.01,,2013-01-12 16:52:00,
2013-01-12 11:02:00,69.0,66.0,29.68,SSW,194,4.0,8.0,90,0.00,,,0.01,,2013-01-12 17:02:00,
2013-01-12 11:12:00,69.0,66.0,29.68,SSW,194,4.0,8.0,90,0.00,,,0.01,,2013-01-12 17:12:00,
2013-01-12 11:22:00,69.0,66.0,29.67,SSW,194,4.0,8.0,90,0.00,,,0.01,,2013-01-12 17:22:00,
2013-01-12 11:33:00,70.0,67.0,29.67,SSW,194,4.0,8.0,89,0.00,,,0.01,,2013-01-12 17:33:00,
2013-01-12 11:42:00,70.0,67.0,29.67,SSW,194,4.0,8.0,89,0.00,,,0.01,,2013-01-12 17:42:00,
2013-01-12 11:53:00,70.0,66.0,29.65,South,190,2.0,11.0,88,0.00,,,0.01,,2013-01-12 17:53:00,
2013-01-12 12:03:00,70.0,66.0,29.65,SSW,207,4.0,10.0,87,0.00,,,0.01,,2013-01-12 18:03:00,
2013-01-12 12:12:00,70.0,66.0,29.65,SSW,207,4.0,10.0,87,0.00,,,0.01,,2013-01-12 18:12:00,
2013-01-12 12:22:00,71.0,67.0,29.65,SSW,202,6.0,12.0,86,0.00,,,0.01,,2013-01-12 18:22:00,
2013-01-12 12:33:00,72.0,67.0,29.64,SSW,203,7.0,11.0,84,0.00,,,0.01,,2013-01-12 18:33:00,
2013-01-12 12:42:00,72.0,67.0,29.64,SSW,203,7.0,11.0,84,0.00,,,0.01,,2013-01-12 18:42:00,
2013-01-12 12:52:00,71.0,66.0,29.65,SSW,209,5.0,13.0,84,0.00,,,0.01,,2013-01-12 18:52:00,
2013-01-12 13:03:00,72.0,67.0,29.63,SSW,204,3.0,12.0,83,0.00,,,0.01,,2013-01-12 19:03:00,
2013-01-12 13:12:00,72.0,67.0,29.63,SSW,204,3.0,12.0,83,0.00,,,0.01,,2013-01-12 19:12:00,
2013-01-12 13:23:00,72.0,66.0,29.61,SSW,200,7.0,14.0,81,0.00,,,0.01,,2013-01-12 19:23:00,
2013-01-12 13:33:00,73.0,66.0,29.59,SSW,207,8.0,16.0,80,0.00,,,0.01,,2013-01-12 19:33:00,
2013-01-12 13:43:00,73.0,66.0,29.59,SSW,207,8.0,16.0,80,0.00,,,0.01,,2013-01-12 19:43:00,
2013-01-12 13:52:00,73.0,66.0,29.60,SSW,198,7.0,17.0,79,0.00,,,0.01,,2013-01-12 19:52:00,
2013-01-12 14:03:00,73.0,66.0,29.59,SSW,192,6.0,16.0,79,0.00,,,0.01,,2013-01-12 20:03:00,
2013-01-12 14:12:00,73.0,66.0,29.59,SSW,195,3.0,16.0,80,0.00,,,0.01,,2013-01-12 20:12:00,
2013-01-12 14:22:00,73.0,66.0,29.59,SSW,195,3.0,16.0,80,0.00,,,0.01,,2013-01-12 20:22:00,
2013-01-12 14:33:00,73.0,66.0,29.59,SSW,198,6.0,11.0,79,0.00,,,0.01,,2013-01-12 20:33:00,
2013-01-12 14:42:00,73.0,66.0,29.59,SSW,198,6.0,11.0,79,0.00,,,0.01,,2013-01-12 20:42:00,
2013-01-12 14:53:00,73.0,66.0,29.58,SSW,200,7.0,12.0,79,0.00,,,0.01,,2013-01-12 20:53:00,
2013-01-12 15:03:00,73.0,66.0,29.58,SSW,204,6.0,14.0,78,0.00,,,0.01,,2013-01-12 21:03:00,
2013-01-12 15:12:00,73.0,66.0,29.58,SSW,203,1.0,9.0,78,0.00,,,0.01,,2013-01-12 21:12:00,
2013-01-12 15:22:00,73.0,66.0,29.58,SSW,203,1.0,9.0,78,0.00,,,0.01,,2013-01-12 21:22:00,
2013-01-12 15:33:00,73.0,66.0,29.58,SSW,201,2.0,12.0,78,0.00,,,0.01,,2013-01-12 21:33:00,
2013-01-12 15:42:00,73.0,66.0,29.58,SSW,201,2.0,12.0,78,0.00,,,0.01,,2013-01-12 21:42:00,
2013-01-12 15:52:00,73.0,65.0,29.58,SSW,201,5.0,9.0,77,0.00,,,0.01,,2013-01-12 21:52:00,
2013-01-12 16:03:00,73.0,65.0,29.58,SSW,200,4.0,9.0,77,0.00,,,0.01,,2013-01-12 22:03:00,
2013-01-12 16:12:00,73.0,65.0,29.58,SSW,200,4.0,9.0,77,0.00,,,0.01,,2013-01-12 22:12:00,
2013-01-12 16:22:00,73.0,65.0,29.58,SSW,201,4.0,10.0,76,0.00,,,0.01,,2013-01-12 22:22:00,
2013-01-12 16:33:00,73.0,65.0,29.58,SSW,200,4.0,9.0,77,0.00,,,0.01,,2013-01-12 22:33:00,
2013-01-12 16:43:00,73.0,65.0,29.58,SSW,200,4.0,9.0,77,0.00,,,0.01,,2013-01-12 22:43:00,
2013-01-12 16:52:00,73.0,65.0,29.59,SSW,200,3.0,9.0,77,0.00,,,0.01,,2013-01-12 22:52:00,
2013-01-12 17:03:00,73.0,65.0,29.59,SSW,200,3.0,8.0,77,0.00,,,0.01,,2013-01-12 23:03:00,
2013-01-12 17:12:00,73.0,65.0,29.61,SSW,201,0.0,3.0,77,0.00,,,0.01,,2013-01-12 23:12:00,
2013-01-12 17:22:00,73.0,65.0,29.61,SSW,201,0.0,3.0,77,0.00,,,0.01,,2013-01-12 23:22:00,
2013-01-12 17:33:00,73.0,65.0,29.61,SSW,200,0.0,0.0,77,0.00,,,0.01,,2013-01-12 23:33:00,
2013-01-12 17:42:00,73.0,65.0,29.61,SSW,200,0.0,0.0,77,0.00,,,0.01,,2013-01-12 23:42:00,
2013-01-12 17:53:00,72.0,65.0,29.61,SSW,201,0.0,0.0,78,0.00,,,0.01,,2013-01-12 23:53:00,
2013-01-12 18:03:00,72.0,65.0,29.62,SSW,201,0.0,3.0,78,0.00,,,0.01,,2013-01-13 00:03:00,
2013-01-12 18:12:00,72.0,65.0,29.62,SSW,201,0.0,3.0,78,0.00,,,0.01,,2013-01-13 00:12:00,
2013-01-12 18:22:00,71.0,64.0,29.62,SSW,201,0.0,0.0,79,0.00,,,0.01,,2013-01-13 00:22:00,
2013-01-12 18:33:00,71.0,65.0,29.63,SSW,200,0.0,3.0,80,0.00,,,0.01,,2013-01-13 00:33:00,
2013-01-12 18:42:00,71.0,65.0,29.63,SSW,200,0.0,3.0,80,0.00,,,0.01,,2013-01-13 00:42:00,
2013-01-12 18:52:00,66.0,54.0,29.66,NW,325,7.0,18.0,65,0.00,,,0.01,,2013-01-13 00:52:00,
2013-01-12 19:02:00,65.0,54.0,29.67,NNW,342,8.0,17.0,67,0.00,,,0.01,,2013-01-13 01:02:00,
2013-01-12 19:12:00,65.0,54.0,29.67,NNW,342,8.0,17.0,67,0.00,,,0.01,,2013-01-13 01:12:00,
2013-01-12 19:22:00,63.0,49.0,29.68,NNW,342,9.0,20.0,61,0.00,,,0.01,,2013-01-13 01:22:00,
2013-01-12 19:33:00,60.0,45.0,29.69,North,355,11.0,24.0,57,0.00,,,0.01,,2013-01-13 01:33:00,
2013-01-12 19:43:00,60.0,45.0,29.69,North,355,11.0,24.0,57,0.00,,,0.01,,2013-01-13 01:43:00,
2013-01-12 19:52:00,58.0,43.0,29.71,NNW,340,8.0,18.0,58,0.00,,,0.01,,2013-01-13 01:52:00,
2013-01-12 20:02:00,57.0,43.0,29.71,North,355,8.0,19.0,59,0.00,,,0.01,,2013-01-13 02:02:00,
2013-01-12 20:12:00,57.0,43.0,29.71,North,355,8.0,19.0,59,0.00,,,0.01,,2013-01-13 02:12:00,
2013-01-12 20:22:00,55.0,42.0,29.72,NNW,346,11.0,19.0,61,0.00,,,0.01,,2013-01-13 02:22:00,
2013-01-12 20:32:00,54.0,42.0,29.74,NNE,18,10.0,21.0,63,0.00,,,0.01,,2013-01-13 02:32:00,
2013-01-12 20:42:00,54.0,42.0,29.74,NNE,18,10.0,21.0,63,0.00,,,0.01,,2013-01-13 02:42:00,
2013-01-12 20:52:00,53.0,41.0,29.74,NNW,337,10.0,18.0,64,0.00,,,0.01,,2013-01-13 02:52:00,
2013-01-12 21:02:00,52.0,41.0,29.75,NNW,348,9.0,17.0,65,0.00,,,0.01,,2013-01-13 03:02:00,
2013-01-12 21:12:00,52.0,41.0,29.75,NNW,348,9.0,17.0,65,0.00,,,0.01,,2013-01-13 03:12:00,
2013-01-12 21:22:00,51.0,40.0,29.75,NNW,342,6.0,17.0,66,0.00,,,0.01,,2013-01-13 03:22:00,
2013-01-12 21:33:00,51.0,40.0,29.76,NNW,344,8.0,19.0,66,0.00,,,0.01,,2013-01-13 03:33:00,
2013-01-12 21:42:00,51.0,40.0,29.76,NNW,344,8.0,19.0,66,0.00,,,0.01,,2013-01-13 03:42:00,
2013-01-12 21:53:00,50.0,39.0,29.76,North,355,6.0,14.0,67,0.00,,,0.01,,2013-01-13 03:53:00,
2013-01-12 22:02:00,50.0,39.0,29.78,NNW,342,8.0,15.0,67,0.00,,,0.01,,2013-01-13 04:02:00,
2013-01-12 22:12:00,50.0,39.0,29.78,NNW,342,8.0,15.0,67,0.00,,,0.01,,2013-01-13 04:12:00,
2013-01-12 22:22:00,49.0,38.0,29.78,NNE,15,7.0,14.0,66,0.00,,,0.01,,2013-01-13 04:22:00,
2013-01-12 22:32:00,48.0,37.0,29.78,North,360,5.0,17.0,66,0.00,,,0.01,,2013-01-13 04:32:00,
2013-01-12 22:42:00,48.0,37.0,29.78,North,360,5.0,17.0,66,0.00,,,0.01,,2013-01-13 04:42:00,
2013-01-12 22:53:00,48.0,36.0,29.79,North,355,10.0,20.0,64,0.00,,,0.01,,2013-01-13 04:53:00,
2013-01-12 23:03:00,47.0,35.0,29.79,North,360,6.0,19.0,64,0.00,,,0.01,,2013-01-13 05:03:00,
2013-01-12 23:12:00,47.0,35.0,29.79,North,360,6.0,19.0,64,0.00,,,0.01,,2013-01-13 05:12:00,
2013-01-12 23:22:00,46.0,35.0,29.81,North,10,11.0,21.0,64,0.00,,,0.01,,2013-01-13 05:22:00,
2013-01-12 23:32:00,46.0,35.0,29.81,North,10,11.0,21.0,64,0.00,,,0.01,,2013-01-13 05:32:00,
2013-01-12 23:42:00,46.0,35.0,29.81,North,10,11.0,21.0,64,0.00,,,0.01,,2013-01-13 05:42:00,
2013-01-12 23:53:00,46.0,35.0,29.84,NNW,333,8.0,16.0,64,0.00,,,0.01,,2013-01-13 05:53:00,